TimeCDT,TemperatureF,Dew PointF,Humidity,Sea Level PressureIn,VisibilityMPH,Wind Direction,Wind SpeedMPH,Gust SpeedMPH,PrecipitationIn,Events,Conditions,WindDirDegrees,DateUTC
12:15 AM,80.2,72.9,78,29.89,10.0,SSE,13.8,-,N/A,,Clear,150,2013-10-05 05:15:00
12:35 AM,80.2,73.0,79,29.88,10.0,SSE,11.5,-,N/A,,Clear,150,2013-10-05 05:35:00
12:55 AM,80.1,73.4,80,29.88,10.0,SSE,12.7,-,N/A,,Clear,150,2013-10-05 05:55:00
1:15 AM,79.9,73.4,80,29.88,10.0,SSE,11.5,-,N/A,,Clear,150,2013-10-05 06:15:00
1:35 AM,79.9,72.9,79,29.88,10.0,SSE,11.5,-,N/A,,Clear,160,2013-10-05 06:35:00
1:55 AM,80.1,73.2,80,29.87,10.0,SSE,9.2,-,N/A,,Clear,160,2013-10-05 06:55:00
2:15 AM,79.9,73.4,80,29.87,10.0,SSE,12.7,-,N/A,,Clear,150,2013-10-05 07:15:00
2:35 AM,79.9,73.6,81,29.87,10.0,SSE,11.5,16.1,N/A,,Clear,160,2013-10-05 07:35:00
2:55 AM,79.9,73.2,80,29.87,10.0,SSE,12.7,-,N/A,,Clear,160,2013-10-05 07:55:00
3:15 AM,80.2,72.7,78,29.87,10.0,SSE,11.5,17.3,N/A,,Clear,160,2013-10-05 08:15:00
3:35 AM,80.2,72.7,78,29.87,10.0,SSE,11.5,-,N/A,,Scattered Clouds,160,2013-10-05 08:35:00
3:55 AM,80.2,72.3,77,29.87,10.0,South,10.4,-,N/A,,Scattered Clouds,170,2013-10-05 08:55:00
4:15 AM,80.2,72.1,76,29.87,10.0,South,6.9,-,N/A,,Clear,170,2013-10-05 09:15:00
4:35 AM,79.9,72.5,78,29.87,10.0,South,8.1,-,N/A,,Clear,170,2013-10-05 09:35:00
4:55 AM,79.3,72.5,79,29.87,10.0,South,5.8,-,N/A,,Clear,170,2013-10-05 09:55:00
5:15 AM,79.0,72.7,81,29.87,7.0,South,4.6,-,N/A,,Clear,180,2013-10-05 10:15:00
5:35 AM,78.8,72.9,82,29.87,7.0,South,4.6,-,N/A,,Scattered Clouds,170,2013-10-05 10:35:00
5:55 AM,79.0,72.5,80,29.88,10.0,South,4.6,-,N/A,,Scattered Clouds,180,2013-10-05 10:55:00
6:15 AM,79.0,72.7,81,29.88,10.0,SSE,3.5,-,N/A,,Clear,160,2013-10-05 11:15:00
6:35 AM,79.3,73.0,81,29.88,7.0,South,3.5,-,N/A,,Clear,170,2013-10-05 11:35:00
6:55 AM,79.0,73.4,83,29.88,7.0,SSE,4.6,-,N/A,,Scattered Clouds,150,2013-10-05 11:55:00
7:15 AM,79.9,73.6,81,29.88,10.0,SSE,6.9,-,N/A,,Scattered Clouds,160,2013-10-05 12:15:00
7:35 AM,79.7,73.0,80,29.88,10.0,SSE,6.9,-,N/A,,Clear,160,2013-10-05 12:35:00
7:55 AM,79.9,73.8,81,29.88,7.0,SSE,4.6,-,N/A,,Scattered Clouds,160,2013-10-05 12:55:00
8:15 AM,81.3,74.1,79,29.88,10.0,SSE,4.6,-,N/A,,Scattered Clouds,150,2013-10-05 13:15:00
8:35 AM,82.4,73.9,75,29.89,10.0,South,4.6,-,N/A,,Clear,170,2013-10-05 13:35:00
8:55 AM,83.3,73.8,73,29.89,10.0,SE,5.8,-,N/A,,Clear,140,2013-10-05 13:55:00
9:15 AM,83.7,73.6,72,29.90,10.0,SSE,6.9,-,N/A,,Clear,160,2013-10-05 14:15:00
9:35 AM,84.2,73.8,71,29.90,10.0,SSE,5.8,-,N/A,,Scattered Clouds,150,2013-10-05 14:35:00
9:55 AM,84.6,73.8,70,29.91,10.0,SSE,5.8,-,N/A,,Scattered Clouds,150,2013-10-05 14:55:00
10:15 AM,84.9,74.3,70,29.91,10.0,SE,5.8,-,N/A,,Clear,130,2013-10-05 15:15:00
10:35 AM,85.3,74.7,70,29.91,10.0,ESE,6.9,-,N/A,,Scattered Clouds,120,2013-10-05 15:35:00
10:55 AM,84.7,74.7,72,29.91,10.0,SE,6.9,-,N/A,,Mostly Cloudy,130,2013-10-05 15:55:00
11:15 AM,85.3,74.7,70,29.92,10.0,ESE,8.1,-,N/A,,Scattered Clouds,120,2013-10-05 16:15:00
11:35 AM,85.8,74.5,69,29.92,10.0,ESE,6.9,-,N/A,,Scattered Clouds,120,2013-10-05 16:35:00
11:55 AM,86.2,74.5,68,29.92,10.0,SE,8.1,-,N/A,,Clear,130,2013-10-05 16:55:00
12:15 PM,85.8,74.7,69,29.91,10.0,ESE,6.9,-,N/A,,Clear,110,2013-10-05 17:15:00
12:35 PM,86.0,74.7,69,29.91,10.0,ESE,8.1,-,N/A,,Scattered Clouds,120,2013-10-05 17:35:00
12:55 PM,86.5,74.5,67,29.90,10.0,SE,9.2,-,N/A,,Scattered Clouds,130,2013-10-05 17:55:00
1:15 PM,86.4,74.7,68,29.90,10.0,ESE,6.9,-,N/A,,Scattered Clouds,110,2013-10-05 18:15:00
1:35 PM,86.4,74.8,68,29.89,10.0,ESE,8.1,-,N/A,,Clear,110,2013-10-05 18:35:00
1:55 PM,86.5,74.8,68,29.88,10.0,ESE,5.8,-,N/A,,Clear,120,2013-10-05 18:55:00
2:15 PM,86.5,75.6,70,29.88,10.0,East,8.1,-,N/A,,Scattered Clouds,90,2013-10-05 19:15:00
2:35 PM,85.8,75.0,70,29.88,10.0,East,8.1,-,N/A,,Mostly Cloudy,100,2013-10-05 19:35:00
2:55 PM,86.2,74.8,69,29.88,10.0,East,6.9,-,N/A,,Scattered Clouds,100,2013-10-05 19:55:00
3:15 PM,84.7,74.3,71,29.87,10.0,East,9.2,-,N/A,,Mostly Cloudy,80,2013-10-05 20:15:00
3:35 PM,85.1,74.5,70,29.87,10.0,East,6.9,-,N/A,,Overcast,90,2013-10-05 20:35:00
3:55 PM,86.0,74.7,69,29.86,10.0,East,9.2,-,N/A,,Overcast,90,2013-10-05 20:55:00
4:15 PM,84.6,74.8,72,29.86,10.0,ESE,9.2,-,N/A,,Overcast,110,2013-10-05 21:15:00
4:35 PM,84.6,74.8,72,29.86,10.0,ESE,9.2,-,N/A,,Overcast,110,2013-10-05 21:35:00
4:55 PM,84.4,74.5,72,29.86,10.0,ESE,10.4,-,N/A,,Overcast,110,2013-10-05 21:55:00
5:15 PM,84.4,75.0,73,29.85,10.0,ESE,10.4,-,N/A,,Mostly Cloudy,110,2013-10-05 22:15:00
5:35 PM,83.8,74.7,74,29.84,10.0,ESE,11.5,-,N/A,,Scattered Clouds,120,2013-10-05 22:35:00
5:55 PM,84.6,74.8,72,29.84,10.0,ESE,10.4,-,N/A,,Clear,120,2013-10-05 22:55:00
6:15 PM,84.2,75.0,74,29.84,10.0,ESE,10.4,-,N/A,,Clear,120,2013-10-05 23:15:00
6:35 PM,83.7,74.5,74,29.85,10.0,SE,9.2,-,N/A,,Clear,130,2013-10-05 23:35:00
6:55 PM,82.8,74.5,76,29.86,10.0,SE,11.5,-,N/A,,Clear,130,2013-10-05 23:55:00
7:15 PM,82.4,75.2,79,29.87,10.0,ESE,8.1,-,N/A,,Clear,110,2013-10-06 00:15:00
7:35 PM,82.0,74.7,78,29.88,10.0,SE,8.1,-,N/A,,Clear,130,2013-10-06 00:35:00
7:55 PM,82.2,74.7,78,29.88,10.0,SE,6.9,-,N/A,,Clear,130,2013-10-06 00:55:00
8:15 PM,81.9,74.5,78,29.89,10.0,ESE,6.9,-,N/A,,Clear,120,2013-10-06 01:15:00
8:35 PM,82.0,74.3,77,29.89,10.0,SE,6.9,-,N/A,,Clear,130,2013-10-06 01:35:00
8:55 PM,81.9,73.8,76,29.90,10.0,ESE,5.8,-,N/A,,Clear,120,2013-10-06 01:55:00
9:15 PM,81.9,74.5,78,29.90,10.0,SE,5.8,-,N/A,,Clear,130,2013-10-06 02:15:00
9:35 PM,81.9,75.0,80,29.90,10.0,SE,4.6,-,N/A,,Clear,130,2013-10-06 02:35:00
9:55 PM,81.9,75.2,80,29.91,10.0,SE,4.6,-,N/A,,Clear,130,2013-10-06 02:55:00
10:15 PM,81.5,75.2,81,29.91,10.0,SE,4.6,-,N/A,,Clear,130,2013-10-06 03:15:00
10:35 PM,81.5,74.8,80,29.91,10.0,SE,6.9,-,N/A,,Clear,130,2013-10-06 03:35:00
10:55 PM,80.8,75.2,83,29.92,10.0,SE,5.8,-,N/A,,Clear,140,2013-10-06 03:55:00
11:15 PM,80.8,75.0,83,29.92,10.0,SSE,6.9,-,N/A,,Clear,160,2013-10-06 04:15:00
11:35 PM,81.1,74.8,81,29.91,10.0,South,6.9,-,N/A,,Clear,170,2013-10-06 04:35:00
11:55 PM,80.6,74.7,82,29.91,10.0,South,4.6,-,N/A,,Clear,170,2013-10-06 04:55:00